Hourly Data Report for September 30, 2016

All times are specified in Local Standard Time (LST). Add 1 hour to adjust for Daylight Saving Time where and when it is observed.

BAKER LAKE A
NUNAVUT

64°17'56.000" N
96°04'40.000" W
18.60 m
2300503
71926
YBK

Download Data

Hourly Data (September 2016)
Hourly Data Report for September 30, 2016
Temp Definition
°C
Dew Point Temp Definition
°C
Rel Hum Definition
%
Wind Dir Definition
10's deg

Wind Spd Definition
km/h
Visibility Definition
km
Stn Press Definition
kPa
Hmdx Definition


Wind Chill Definition


Weather Definition


TIME
00:00 Legend Double Dagger 1.1 -1.3 84 31 52 24.1 101.08     Snow
01:00 Legend Double Dagger -0.6 -3.6 80 29 34 24.1 101.31   -8 LegendNANA
02:00 Legend Double Dagger -1.4 -3.9 83 28 29 24.1 101.43   -8 LegendNANA
03:00 Legend Double Dagger -0.9 -2.5 89 26 26 24.1 101.48   -7 Mainly Clear
04:00 Legend Double Dagger -0.4 -1.8 90 25 21 24.1 101.53   -6 Snow
05:00 Legend Double Dagger -0.1 -1.7 89 26 24 24.1 101.55   -6 LegendNANA
06:00 Legend Double Dagger 0.1 -1.2 91 25 23 32.2 101.63     Mostly Cloudy
07:00 Legend Double Dagger 0.5 -1.1 89 26 28 32.2 101.66     LegendNANA
08:00 Legend Double Dagger 1.0 -0.9 87 25 21 32.2 101.72     LegendNANA
09:00 Legend Double Dagger 1.6 -0.8 84 27 35 32.2 101.72     Mainly Clear
10:00 Legend Double Dagger 1.7 -0.7 84 27 33 32.2 101.78     LegendNANA
11:00 Legend Double Dagger 2.3 -0.1 84 26 33 32.2 101.82     LegendNANA
12:00 Legend Double Dagger 2.8 -0.3 80 28 30 32.2 101.87     Mostly Cloudy
13:00 Legend Double Dagger 3.0 -0.8 76 28 34 32.2 101.94     LegendNANA
14:00 Legend Double Dagger 3.1 -1.3 73 28 35 32.2 101.95     LegendNANA
15:00 Legend Double Dagger 1.6 -0.2 88 28 28 32.2 101.99     Mostly Cloudy
16:00 Legend Double Dagger 2.6 -0.3 81 28 25 32.2 102.03     LegendNANA
17:00 Legend Double Dagger 2.2 -0.7 81 28 25 32.2 102.09     LegendNANA
18:00 Legend Double Dagger 2.0 -0.8 82 28 26 32.2 102.12     Cloudy
19:00 Legend Double Dagger 1.8 -0.8 83 27 18 24.1 102.16     LegendNANA
20:00 Legend Double Dagger 1.7 -0.9 83 27 21 24.1 102.19     LegendNANA
21:00 Legend Double Dagger 1.6 -1.1 82 27 20 24.1 102.20     Mostly Cloudy
22:00 Legend Double Dagger 1.5 -1.1 83 28 23 24.1 102.20     LegendNANA
23:00 Legend Double Dagger 1.4 -1.2 83 27 23 24.1 102.25     LegendNANA

Notes on Data Quality.

Legend

  • E = Estimated
  • M = Missing
  • NA = Not Available
  • ‡ = Partner data that is not subject to review by the National Climate Archives
Date modified: